Tracking 19720 objects as of 26-Jun-2019
HD Live streaming from Space Station
objects crossing your sky now

TITAN 3C TRANSTAGE DEB

Track TITAN 3C TRANSTAGE DEB now!
10-day predictions


NORAD ID: 21692
Int'l Code: 1965-108AF
Perigee: 578.8 km
Apogee: 23,178.6 km
Inclination: 28.3 °
Period: 408.9 minutes
Semi major axis: 18249 km
RCS: 0.133 m2 (medium)
Launch date: December 21, 1965
Source: United States (US)
Launch site: AIR FORCE EASTERN TEST RANGE (AFETR)

Note: This is SATELLITE DEBRIS
aabbcc
Your satellite tracking list
Your tracking list is empty




NASA's NSSDC Master Catalog

Two Line Element Set (TLE):
1 21692U 65108AF  19176.51466788  .00000080  00000-0  81695-3 0  9999
2 21692  28.3226 238.7214 6191812 196.0378 347.0691  3.52142702316369
Source of the keplerian elements: AFSPC